| time (UTC) | temp F | wind direction | speed MPH | gust MPH | rain 1hr in | rain 24hr in | rain mn in | humidity % | barometer mb |
| 20260904184104 | 62 | 87 | 0.0 | 0.0 | 0.00 | 0.00 | 0.00 | 78 | 1014.1 |
| 20260904183604 | 63 | 87 | 0.0 | 0.0 | 0.00 | 0.00 | 0.00 | 77 | 1014.0 |
| 20260904183104 | 64 | 87 | 0.0 | 2.0 | 0.00 | 0.00 | 0.00 | 74 | 1014.0 |
| 20260904182604 | 65 | 43 | 0.0 | 1.0 | 0.00 | 0.00 | 0.00 | 75 | 1013.9 |
| 20260904182104 | 65 | 17 | 0.0 | 0.0 | 0.00 | 0.00 | 0.00 | 76 | 1013.8 |
| 20260904181604 | 65 | 315 | 0.0 | 1.0 | 0.00 | 0.00 | 0.00 | 73 | 1013.6 |
| 20260904181104 | 64 | 23 | 0.0 | 2.0 | 0.00 | 0.00 | 0.00 | 73 | 1013.4 |
| 20260904180604 | 63 | 270 | 0.0 | 2.0 | 0.00 | 0.00 | 0.00 | 72 | 1013.3 |
| 20260904180104 | 63 | 244 | 0.0 | 0.0 | 0.00 | 0.00 | 0.00 | 73 | 1013.4 |
| 20260904175604 | 63 | 333 | 0.0 | 1.0 | 0.00 | 0.00 | 0.00 | 79 | 1013.3 |
| 20260904175105 | 62 | 333 | 0.0 | 0.0 | 0.00 | 0.00 | 0.00 | 79 | 1013.3 |
| 20260904174606 | 61 | 333 | 0.0 | 0.0 | 0.00 | 0.00 | 0.00 | 82 | 1013.3 |
| 20260904174104 | 61 | 332 | 0.0 | 0.0 | 0.00 | 0.00 | 0.00 | 81 | 1013.3 |
| 20260904173604 | 60 | 332 | 0.0 | 0.0 | 0.00 | 0.00 | 0.00 | 84 | 1013.3 |
| 20260904173104 | 60 | 332 | 0.0 | 0.0 | 0.00 | 0.00 | 0.00 | 83 | 1013.5 |
| 20260904172604 | 60 | 332 | 0.0 | 0.0 | 0.00 | 0.00 | 0.00 | 82 | 1013.5 |
| 20260904172104 | 60 | 332 | 0.0 | 0.0 | 0.00 | 0.00 | 0.00 | 79 | 1013.5 |
| 20260904171605 | 60 | 333 | 0.0 | 0.0 | 0.00 | 0.00 | 0.00 | 80 | 1013.6 |
| 20260904171104 | 60 | 333 | 0.0 | 0.0 | 0.00 | 0.00 | 0.00 | 80 | 1013.6 |
| 20260904170604 | 60 | 333 | 0.0 | 0.0 | 0.00 | 0.00 | 0.00 | 80 | 1013.5 |
| 20260904170105 | 60 | 333 | 0.0 | 2.0 | 0.00 | 0.00 | 0.00 | 80 | 1013.5 |
| 20260904165605 | 60 | 15 | 0.0 | 0.0 | 0.00 | 0.00 | 0.00 | 80 | 1013.5 |
| 20260904165104 | 60 | 304 | 0.0 | 2.0 | 0.00 | 0.00 | 0.00 | 80 | 1013.4 |
| 20260904164604 | 60 | 270 | 0.0 | 0.0 | 0.00 | 0.00 | 0.00 | 81 | 1013.4 |
| 20260904164104 | 59 | 246 | 1.0 | 6.0 | 0.00 | 0.00 | 0.00 | 83 | 1013.4 |
| 20260904163604 | 59 | 317 | 0.0 | 0.0 | 0.00 | 0.00 | 0.00 | 84 | 1013.4 |
| 20260904163104 | 59 | 317 | 0.0 | 8.0 | 0.00 | 0.00 | 0.00 | 83 | 1013.4 |
| 20260904162604 | 59 | 313 | 0.0 | 8.0 | 0.00 | 0.00 | 0.00 | 83 | 1013.3 |
| 20260904162104 | 58 | 329 | 3.0 | 13.0 | 0.00 | 0.00 | 0.00 | 83 | 1013.3 |
| 20260904161604 | 58 | 326 | 1.0 | 8.0 | 0.00 | 0.00 | 0.00 | 85 | 1013.2 |
| 20260904161104 | 58 | 10 | 0.0 | 0.0 | 0.00 | 0.00 | 0.00 | 86 | 1013.3 |
| 20260904160104 | 57 | 315 | 0.0 | 5.0 | 0.00 | 0.01 | 0.00 | 89 | 1013.1 |
| 20260904155604 | 57 | 312 | 0.0 | 8.0 | 0.00 | 0.01 | 0.00 | 89 | 1013.2 |
| 20260904155104 | 57 | 342 | 0.0 | 0.0 | 0.00 | 0.01 | 0.00 | 91 | 1013.1 |
| 20260904154104 | 56 | 19 | 0.0 | 0.0 | 0.00 | 0.01 | 0.00 | 92 | 1013.0 |
| 20260904153604 | 55 | 347 | 0.0 | 1.0 | 0.00 | 0.01 | 0.00 | 92 | 1012.9 |
| 20260904153104 | 55 | 347 | 0.0 | 0.0 | 0.00 | 0.01 | 0.00 | 92 | 1012.9 |
| 20260904152604 | 55 | 347 | 0.0 | 0.0 | 0.00 | 0.01 | 0.00 | 92 | 1012.9 |
| 20260904151604 | 54 | 347 | 0.0 | 0.0 | 0.00 | 0.01 | 0.00 | 92 | 1012.9 |
| 20260904151104 | 54 | 347 | 0.0 | 0.0 | 0.00 | 0.01 | 0.00 | 92 | 1012.7 |
| 20260904150605 | 54 | 347 | 0.0 | 0.0 | 0.00 | 0.02 | 0.00 | 92 | 1012.8 |
| 20260904150103 | 54 | 347 | 0.0 | 0.0 | 0.00 | 0.02 | 0.00 | 91 | 1012.8 |
| 20260904145604 | 54 | 347 | 0.0 | 0.0 | 0.00 | 0.02 | 0.00 | 92 | 1012.6 |
| 20260904145104 | 54 | 347 | 0.0 | 0.0 | 0.00 | 0.02 | 0.00 | 91 | 1012.5 |
| 20260904144604 | 54 | 347 | 0.0 | 0.0 | 0.00 | 0.02 | 0.00 | 91 | 1012.4 |
| 20260904144104 | 55 | 347 | 0.0 | 0.0 | 0.00 | 0.02 | 0.00 | 91 | 1012.5 |
| 20260904143605 | 55 | 347 | 0.0 | 0.0 | 0.00 | 0.02 | 0.00 | 91 | 1012.5 |
| 20260904143104 | 55 | 347 | 0.0 | 0.0 | 0.00 | 0.02 | 0.00 | 91 | 1012.4 |
| 20260904142604 | 55 | 347 | 0.0 | 0.0 | 0.00 | 0.02 | 0.00 | 91 | 1012.3 |
| 20260904142104 | 55 | 347 | 0.0 | 0.0 | 0.00 | 0.02 | 0.00 | 91 | 1012.3 |
| 20260904141104 | 55 | 347 | 0.0 | 0.0 | 0.00 | 0.02 | 0.00 | 91 | 1012.3 |
| 20260904140604 | 55 | 347 | 0.0 | 0.0 | 0.00 | 0.02 | 0.00 | 91 | 1012.3 |
| 20260904140104 | 55 | 347 | 0.0 | 2.0 | 0.00 | 0.02 | 0.00 | 91 | 1012.2 |
| 20260904135604 | 55 | 348 | 0.0 | 2.0 | 0.00 | 0.03 | 0.00 | 92 | 1012.1 |
| 20260904135104 | 54 | 9 | 0.0 | 0.0 | 0.00 | 0.03 | 0.00 | 92 | 1012.1 |
| 20260904134104 | 54 | 9 | 0.0 | 0.0 | 0.00 | 0.03 | 0.00 | 91 | 1012.1 |
| 20260904133604 | 54 | 9 | 0.0 | 0.0 | 0.00 | 0.03 | 0.00 | 91 | 1012.0 |
| 20260904133104 | 54 | 9 | 0.0 | 0.0 | 0.00 | 0.03 | 0.00 | 91 | 1011.9 |
| 20260904132604 | 54 | 9 | 0.0 | 0.0 | 0.00 | 0.03 | 0.00 | 91 | 1011.8 |
| 20260904132103 | 54 | 9 | 0.0 | 0.0 | 0.00 | 0.03 | 0.00 | 91 | 1011.7 |
| 20260904131604 | 54 | 9 | 0.0 | 0.0 | 0.00 | 0.03 | 0.00 | 91 | 1011.6 |
| 20260904131104 | 54 | 9 | 0.0 | 0.0 | 0.00 | 0.03 | 0.00 | 91 | 1011.5 |
| 20260904130604 | 54 | 9 | 0.0 | 0.0 | 0.00 | 0.03 | 0.00 | 91 | 1011.4 |
| 20260904130104 | 54 | 9 | 0.0 | 0.0 | 0.00 | 0.03 | 0.00 | 91 | 1011.5 |
| 20260904125604 | 54 | 9 | 0.0 | 0.0 | 0.00 | 0.03 | 0.00 | 91 | 1011.4 |
| 20260904125104 | 55 | 9 | 0.0 | 0.0 | 0.00 | 0.03 | 0.00 | 91 | 1011.4 |
| 20260904124603 | 55 | 9 | 0.0 | 0.0 | 0.00 | 0.03 | 0.00 | 91 | 1011.4 |
| 20260904124103 | 55 | 9 | 0.0 | 9.0 | 0.00 | 0.03 | 0.00 | 91 | 1011.4 |
| 20260904123604 | 55 | 12 | 0.0 | 0.0 | 0.00 | 0.03 | 0.00 | 91 | 1011.4 |
| 20260904123104 | 55 | 11 | 0.0 | 0.0 | 0.00 | 0.03 | 0.00 | 91 | 1011.2 |
| 20260904122104 | 54 | 11 | 0.0 | 0.0 | 0.00 | 0.03 | 0.00 | 92 | 1011.1 |
| 20260904121104 | 54 | 11 | 0.0 | 0.0 | 0.00 | 0.03 | 0.00 | 92 | 1011.1 |
| 20260904120604 | 54 | 11 | 0.0 | 0.0 | 0.00 | 0.03 | 0.00 | 92 | 1011.1 |
| 20260904120104 | 54 | 11 | 0.0 | 1.0 | 0.00 | 0.03 | 0.00 | 92 | 1011.1 |
| 20260904115603 | 54 | 11 | 1.0 | 5.0 | 0.00 | 0.03 | 0.00 | 92 | 1011.2 |
| 20260904115104 | 54 | 250 | 0.0 | 0.0 | 0.00 | 0.03 | 0.00 | 93 | 1011.1 |
| 20260904114604 | 54 | 250 | 0.0 | 0.0 | 0.00 | 0.03 | 0.00 | 93 | 1011.2 |
| 20260904114103 | 54 | 250 | 0.0 | 0.0 | 0.00 | 0.03 | 0.00 | 93 | 1011.1 |
| 20260904113604 | 54 | 250 | 0.0 | 0.0 | 0.00 | 0.03 | 0.00 | 93 | 1011.1 |
| 20260904113104 | 54 | 251 | 0.0 | 0.0 | 0.00 | 0.03 | 0.00 | 93 | 1011.1 |
| 20260904112603 | 54 | 251 | 0.0 | 0.0 | 0.00 | 0.03 | 0.00 | 93 | 1011.0 |
| 20260904111604 | 54 | 250 | 0.0 | 0.0 | 0.00 | 0.04 | 0.00 | 93 | 1010.9 |
| 20260904111104 | 54 | 250 | 0.0 | 0.0 | 0.00 | 0.04 | 0.00 | 93 | 1010.9 |
| 20260904110604 | 54 | 250 | 0.0 | 0.0 | 0.00 | 0.04 | 0.00 | 93 | 1010.9 |
| 20260904110104 | 54 | 250 | 0.0 | 0.0 | 0.00 | 0.04 | 0.00 | 93 | 1010.9 |
| 20260904105604 | 54 | 250 | 0.0 | 0.0 | 0.00 | 0.04 | 0.00 | 92 | 1010.8 |
| 20260904105104 | 54 | 250 | 0.0 | 0.0 | 0.00 | 0.04 | 0.00 | 93 | 1010.7 |
| 20260904104604 | 54 | 250 | 0.0 | 0.0 | 0.00 | 0.05 | 0.00 | 93 | 1010.6 |
| 20260904104104 | 54 | 250 | 0.0 | 0.0 | 0.00 | 0.05 | 0.00 | 93 | 1010.6 |
| 20260904103603 | 54 | 250 | 0.0 | 0.0 | 0.00 | 0.05 | 0.00 | 93 | 1010.6 |
| 20260904103103 | 54 | 250 | 0.0 | 0.0 | 0.00 | 0.06 | 0.00 | 93 | 1010.5 |
| 20260904102603 | 54 | 250 | 0.0 | 0.0 | 0.00 | 0.06 | 0.00 | 93 | 1010.5 |
| 20260904102104 | 54 | 250 | 0.0 | 0.0 | 0.00 | 0.06 | 0.00 | 93 | 1010.5 |
| 20260904101603 | 54 | 250 | 0.0 | 0.0 | 0.00 | 0.06 | 0.00 | 93 | 1010.6 |
| 20260904101103 | 54 | 250 | 0.0 | 0.0 | 0.00 | 0.06 | 0.00 | 93 | 1010.5 |
| 20260904100603 | 54 | 250 | 0.0 | 0.0 | 0.00 | 0.06 | 0.00 | 93 | 1010.5 |
| 20260904100103 | 54 | 250 | 0.0 | 0.0 | 0.00 | 0.07 | 0.00 | 93 | 1010.5 |
| 20260904095604 | 54 | 250 | 0.0 | 0.0 | 0.00 | 0.07 | 0.00 | 93 | 1010.4 |
| 20260904095104 | 54 | 251 | 0.0 | 0.0 | 0.00 | 0.07 | 0.00 | 93 | 1010.5 |
| 20260904094604 | 54 | 250 | 0.0 | 0.0 | 0.00 | 0.07 | 0.00 | 92 | 1010.5 |
| 20260904093604 | 54 | 250 | 0.0 | 0.0 | 0.00 | 0.07 | 0.00 | 92 | 1010.5 |
| 20260904093104 | 54 | 250 | 0.0 | 0.0 | 0.00 | 0.07 | 0.00 | 93 | 1010.5 |
| 20260904092603 | 54 | 250 | 0.0 | 0.0 | 0.00 | 0.07 | 0.00 | 92 | 1010.4 |
| 20260904092104 | 54 | 250 | 0.0 | 0.0 | 0.00 | 0.07 | 0.00 | 92 | 1010.5 |
| 20260904091604 | 54 | 250 | 0.0 | 0.0 | 0.00 | 0.07 | 0.00 | 92 | 1010.5 |
| 20260904091104 | 54 | 250 | 0.0 | 0.0 | 0.00 | 0.07 | 0.00 | 93 | 1010.5 |
| 20260904090604 | 54 | 250 | 0.0 | 0.0 | 0.00 | 0.07 | 0.00 | 92 | 1010.6 |
| 20260904090104 | 54 | 250 | 0.0 | 0.0 | 0.00 | 0.07 | 0.00 | 92 | 1010.6 |
| 20260904085103 | 54 | 250 | 0.0 | 0.0 | 0.00 | 0.08 | 0.00 | 92 | 1010.7 |
| 20260904084104 | 54 | 250 | 0.0 | 0.0 | 0.00 | 0.08 | 0.00 | 92 | 1010.6 |
| 20260904083604 | 54 | 250 | 0.0 | 0.0 | 0.00 | 0.09 | 0.00 | 92 | 1010.5 |
| 20260904083104 | 54 | 250 | 0.0 | 0.0 | 0.00 | 0.09 | 0.00 | 92 | 1010.6 |
| 20260904081104 | 54 | 250 | 0.0 | 0.0 | 0.00 | 0.09 | 0.00 | 92 | 1010.5 |
| 20260904080604 | 54 | 250 | 0.0 | 0.0 | 0.00 | 0.09 | 0.00 | 92 | 1010.5 |
| 20260904075604 | 54 | 250 | 0.0 | 0.0 | 0.00 | 0.09 | 0.00 | 92 | 1010.6 |
| 20260904075104 | 54 | 250 | 0.0 | 0.0 | 0.00 | 0.09 | 0.00 | 93 | 1010.5 |
| 20260904074603 | 54 | 250 | 0.0 | 0.0 | 0.00 | 0.09 | 0.00 | 93 | 1010.6 |
| 20260904074103 | 54 | 250 | 0.0 | 0.0 | 0.00 | 0.09 | 0.00 | 93 | 1010.6 |
| 20260904073603 | 54 | 250 | 0.0 | 0.0 | 0.00 | 0.09 | 0.00 | 93 | 1010.5 |
| 20260904073103 | 54 | 251 | 0.0 | 0.0 | 0.00 | 0.09 | 0.00 | 93 | 1010.6 |
| 20260904072604 | 54 | 250 | 0.0 | 0.0 | 0.00 | 0.09 | 0.00 | 93 | 1010.6 |
| 20260904072104 | 54 | 250 | 0.0 | 0.0 | 0.00 | 0.09 | 0.00 | 93 | 1010.7 |
| 20260904071604 | 54 | 251 | 0.0 | 0.0 | 0.00 | 0.09 | 0.00 | 93 | 1010.7 |
| 20260904071104 | 54 | 250 | 0.0 | 0.0 | 0.00 | 0.09 | 0.00 | 93 | 1010.7 |
| 20260904070604 | 54 | 250 | 0.0 | 0.0 | 0.00 | 0.09 | 0.00 | 93 | 1010.7 |
| 20260904070104 | 54 | 251 | 0.0 | 0.0 | 0.00 | 0.09 | 0.00 | 93 | 1010.7 |
| 20260904065604 | 54 | 250 | 0.0 | 0.0 | 0.00 | 0.09 | 0.09 | 93 | 1010.7 |
| 20260904065104 | 54 | 250 | 0.0 | 0.0 | 0.00 | 0.09 | 0.09 | 93 | 1010.7 |
| 20260904064604 | 54 | 250 | 0.0 | 0.0 | 0.00 | 0.09 | 0.09 | 93 | 1010.7 |
| 20260904063604 | 54 | 250 | 0.0 | 0.0 | 0.00 | 0.10 | 0.09 | 92 | 1010.8 |
| 20260904063104 | 54 | 250 | 0.0 | 0.0 | 0.00 | 0.10 | 0.09 | 92 | 1010.8 |
| 20260904062104 | 54 | 250 | 0.0 | 0.0 | 0.00 | 0.10 | 0.09 | 92 | 1010.7 |
| 20260904061604 | 54 | 250 | 0.0 | 0.0 | 0.00 | 0.10 | 0.09 | 92 | 1010.7 |
| 20260904061104 | 54 | 250 | 0.0 | 0.0 | 0.00 | 0.10 | 0.09 | 92 | 1010.6 |
| 20260904060604 | 54 | 250 | 0.0 | 0.0 | 0.00 | 0.10 | 0.09 | 92 | 1010.6 |
| 20260904060103 | 54 | 251 | 0.0 | 0.0 | 0.00 | 0.10 | 0.09 | 92 | 1010.6 |
| 20260904055604 | 54 | 250 | 0.0 | 0.0 | 0.00 | 0.10 | 0.09 | 92 | 1010.7 |
| 20260904055104 | 54 | 250 | 0.0 | 0.0 | 0.00 | 0.10 | 0.09 | 92 | 1010.6 |
| 20260904054604 | 54 | 250 | 0.0 | 0.0 | 0.00 | 0.10 | 0.09 | 92 | 1010.6 |
| 20260904053606 | 54 | 250 | 0.0 | 0.0 | 0.00 | 0.10 | 0.09 | 92 | 1010.5 |
| 20260904053105 | 54 | 250 | 0.0 | 0.0 | 0.00 | 0.10 | 0.09 | 92 | 1010.5 |
| 20260904052605 | 54 | 250 | 0.0 | 0.0 | 0.00 | 0.10 | 0.09 | 91 | 1010.5 |
| 20260904052105 | 54 | 250 | 0.0 | 0.0 | 0.00 | 0.10 | 0.09 | 91 | 1010.5 |
| 20260904051105 | 54 | 250 | 0.0 | 0.0 | 0.00 | 0.10 | 0.09 | 91 | 1010.5 |
| 20260904050105 | 54 | 250 | 0.0 | 0.0 | 0.00 | 0.10 | 0.09 | 91 | 1010.4 |
| 20260904045605 | 54 | 250 | 0.0 | 0.0 | 0.00 | 0.10 | 0.09 | 91 | 1010.4 |
| 20260904044605 | 55 | 250 | 0.0 | 0.0 | 0.00 | 0.10 | 0.09 | 91 | 1010.5 |
| 20260904044105 | 55 | 250 | 0.0 | 0.0 | 0.00 | 0.10 | 0.09 | 91 | 1010.4 |
| 20260904043605 | 55 | 250 | 0.0 | 0.0 | 0.00 | 0.10 | 0.09 | 91 | 1010.5 |
| 20260904043105 | 55 | 250 | 0.0 | 0.0 | 0.00 | 0.10 | 0.09 | 91 | 1010.5 |
| 20260904042605 | 55 | 250 | 0.0 | 0.0 | 0.00 | 0.10 | 0.09 | 91 | 1010.5 |
| 20260904042105 | 55 | 250 | 0.0 | 0.0 | 0.00 | 0.10 | 0.09 | 91 | 1010.6 |
| 20260904041604 | 55 | 250 | 0.0 | 0.0 | 0.00 | 0.10 | 0.09 | 91 | 1010.6 |
| 20260904041105 | 55 | 250 | 0.0 | 0.0 | 0.00 | 0.10 | 0.09 | 91 | 1010.5 |
| 20260904035605 | 55 | 250 | 0.0 | 0.0 | 0.00 | 0.10 | 0.09 | 91 | 1010.5 |
| 20260904035105 | 55 | 250 | 0.0 | 0.0 | 0.00 | 0.10 | 0.09 | 91 | 1010.5 |
| 20260904034105 | 55 | 250 | 0.0 | 0.0 | 0.00 | 0.10 | 0.09 | 91 | 1010.5 |
| 20260904033605 | 56 | 250 | 0.0 | 0.0 | 0.00 | 0.10 | 0.09 | 91 | 1010.5 |
| 20260904032605 | 56 | 250 | 0.0 | 0.0 | 0.00 | 0.10 | 0.09 | 90 | 1010.5 |
| 20260904032105 | 56 | 250 | 0.0 | 0.0 | 0.00 | 0.10 | 0.09 | 90 | 1010.4 |
| 20260904031605 | 56 | 250 | 0.0 | 0.0 | 0.00 | 0.10 | 0.09 | 90 | 1010.5 |
| 20260904031105 | 56 | 250 | 0.0 | 0.0 | 0.00 | 0.10 | 0.09 | 89 | 1010.4 |
| 20260904030105 | 57 | 250 | 0.0 | 0.0 | 0.00 | 0.10 | 0.09 | 89 | 1010.4 |
| 20260904025605 | 57 | 250 | 0.0 | 0.0 | 0.00 | 0.10 | 0.09 | 89 | 1010.4 |
| 20260904025105 | 57 | 250 | 0.0 | 0.0 | 0.00 | 0.10 | 0.09 | 89 | 1010.4 |
| 20260904024105 | 57 | 250 | 0.0 | 0.0 | 0.00 | 0.10 | 0.09 | 89 | 1010.5 |
| 20260904023605 | 57 | 250 | 0.0 | 0.0 | 0.00 | 0.10 | 0.09 | 89 | 1010.5 |
| 20260904023104 | 57 | 255 | 0.0 | 0.0 | 0.00 | 0.10 | 0.09 | 90 | 1010.4 |
| 20260904022604 | 58 | 181 | 0.0 | 0.0 | 0.00 | 0.11 | 0.09 | 90 | 1010.4 |
| 20260904022105 | 58 | 132 | 0.0 | 0.0 | 0.00 | 0.11 | 0.09 | 91 | 1010.3 |
| 20260904021604 | 58 | 132 | 0.0 | 0.0 | 0.00 | 0.11 | 0.09 | 91 | 1010.3 |
| 20260904021105 | 58 | 132 | 0.0 | 0.0 | 0.00 | 0.12 | 0.09 | 91 | 1010.2 |
| 20260904020605 | 58 | 132 | 0.0 | 0.0 | 0.00 | 0.12 | 0.09 | 90 | 1010.3 |
| 20260904015104 | 58 | 132 | 0.0 | 0.0 | 0.00 | 0.14 | 0.09 | 85 | 1010.2 |
| 20260904014605 | 59 | 132 | 0.0 | 0.0 | 0.00 | 0.14 | 0.09 | 87 | 1010.4 |
| 20260904014104 | 59 | 132 | 0.0 | 0.0 | 0.00 | 0.15 | 0.09 | 84 | 1010.3 |
| 20260904013605 | 59 | 132 | 0.0 | 0.0 | 0.00 | 0.16 | 0.09 | 85 | 1010.3 |
| 20260904013105 | 60 | 132 | 0.0 | 0.0 | 0.00 | 0.17 | 0.09 | 87 | 1010.2 |
| 20260904012604 | 60 | 132 | 0.0 | 0.0 | 0.00 | 0.17 | 0.09 | 86 | 1010.2 |
| 20260904012105 | 60 | 132 | 0.0 | 0.0 | 0.00 | 0.17 | 0.09 | 84 | 1009.9 |
| 20260904011605 | 60 | 132 | 0.0 | 0.0 | 0.00 | 0.17 | 0.09 | 82 | 1009.9 |
| 20260904011105 | 60 | 132 | 0.0 | 0.0 | 0.00 | 0.17 | 0.09 | 86 | 1009.8 |
| 20260904010105 | 60 | 132 | 0.0 | 0.0 | 0.00 | 0.17 | 0.09 | 87 | 1009.8 |
| 20260904005605 | 61 | 132 | 0.0 | 0.0 | 0.00 | 0.17 | 0.09 | 85 | 1009.7 |
| 20260904005105 | 60 | 132 | 0.0 | 0.0 | 0.00 | 0.17 | 0.09 | 80 | 1009.6 |
| 20260904004605 | 60 | 132 | 0.0 | 0.0 | 0.00 | 0.17 | 0.09 | 87 | 1009.7 |
| 20260904003605 | 61 | 132 | 0.0 | 0.0 | 0.00 | 0.17 | 0.09 | 85 | 1009.6 |
| 20260904003105 | 61 | 132 | 0.0 | 0.0 | 0.00 | 0.17 | 0.09 | 85 | 1009.7 |
| 20260904002605 | 61 | 132 | 0.0 | 0.0 | 0.00 | 0.17 | 0.09 | 83 | 1009.7 |
| 20260904002105 | 61 | 132 | 0.0 | 0.0 | 0.00 | 0.18 | 0.09 | 82 | 1009.7 |
| 20260904001605 | 61 | 132 | 0.0 | 0.0 | 0.00 | 0.19 | 0.09 | 79 | 1009.8 |
| 20260904000105 | 61 | 132 | 0.0 | 0.0 | 0.00 | 0.22 | 0.09 | 83 | 1009.7 |
| 20260903235605 | 61 | 132 | 0.0 | 0.0 | 0.00 | 0.22 | 0.09 | 83 | 1009.7 |
| 20260903235105 | 61 | 132 | 0.0 | 0.0 | 0.00 | 0.23 | 0.09 | 84 | 1009.7 |
| 20260903234604 | 61 | 132 | 0.0 | 0.0 | 0.00 | 0.24 | 0.09 | 83 | 1009.8 |
| 20260903234105 | 62 | 132 | 0.0 | 0.0 | 0.00 | 0.24 | 0.09 | 75 | 1009.7 |
| 20260903233605 | 62 | 132 | 0.0 | 0.0 | 0.00 | 0.25 | 0.09 | 76 | 1009.7 |
| 20260903233105 | 61 | 132 | 0.0 | 0.0 | 0.00 | 0.25 | 0.09 | 77 | 1009.7 |
| 20260903231605 | 60 | 132 | 0.0 | 0.0 | 0.00 | 0.26 | 0.09 | 84 | 1009.6 |
| 20260903231105 | 59 | 132 | 0.0 | 0.0 | 0.00 | 0.26 | 0.09 | 86 | 1009.7 |
| 20260903230605 | 59 | 132 | 0.0 | 0.0 | 0.00 | 0.26 | 0.09 | 85 | 1009.7 |
| 20260903230105 | 60 | 132 | 0.0 | 0.0 | 0.00 | 0.26 | 0.09 | 78 | 1009.7 |
| 20260903225604 | 60 | 132 | 0.0 | 0.0 | 0.00 | 0.26 | 0.09 | 78 | 1009.8 |
| 20260903225105 | 61 | 132 | 0.0 | 0.0 | 0.00 | 0.26 | 0.09 | 79 | 1010.0 |
| 20260903224105 | 60 | 132 | 0.0 | 0.0 | 0.00 | 0.26 | 0.09 | 86 | 1010.0 |
| 20260903223605 | 59 | 132 | 0.0 | 0.0 | 0.00 | 0.26 | 0.09 | 86 | 1009.9 |
| 20260903223104 | 60 | 132 | 0.0 | 0.0 | 0.00 | 0.26 | 0.09 | 82 | 1010.1 |
| 20260903222605 | 60 | 132 | 0.0 | 0.0 | 0.00 | 0.26 | 0.09 | 82 | 1010.1 |
| 20260903221605 | 61 | 132 | 0.0 | 1.0 | 0.00 | 0.26 | 0.09 | 84 | 1010.1 |
| 20260903221105 | 60 | 132 | 0.0 | 0.0 | 0.00 | 0.26 | 0.09 | 83 | 1010.1 |
| 20260903220604 | 60 | 132 | 0.0 | 0.0 | 0.00 | 0.26 | 0.09 | 82 | 1010.1 |
| 20260903220104 | 59 | 132 | 0.0 | 0.0 | 0.00 | 0.26 | 0.09 | 85 | 1010.0 |
| 20260903215105 | 60 | 132 | 0.0 | 0.0 | 0.00 | 0.26 | 0.09 | 87 | 1010.0 |
| 20260903214605 | 60 | 132 | 0.0 | 0.0 | 0.00 | 0.26 | 0.09 | 84 | 1010.0 |
| 20260903214105 | 60 | 132 | 0.0 | 0.0 | 0.00 | 0.26 | 0.09 | 82 | 1010.0 |
| 20260903213605 | 59 | 132 | 0.0 | 0.0 | 0.00 | 0.26 | 0.09 | 87 | 1009.9 |
| 20260903213105 | 59 | 132 | 0.0 | 0.0 | 0.00 | 0.26 | 0.09 | 89 | 1009.9 |
| 20260903212104 | 59 | 132 | 0.0 | 0.0 | 0.00 | 0.26 | 0.09 | 87 | 1009.9 |
| 20260903211105 | 59 | 132 | 0.0 | 0.0 | 0.00 | 0.26 | 0.09 | 88 | 1009.9 |
| 20260903210605 | 59 | 132 | 0.0 | 0.0 | 0.00 | 0.26 | 0.09 | 89 | 1009.9 |
| 20260903204605 | 60 | 132 | 0.0 | 0.0 | 0.00 | 0.26 | 0.09 | 88 | 1009.8 |
| 20260903204105 | 59 | 132 | 0.0 | 0.0 | 0.00 | 0.26 | 0.09 | 90 | 1009.7 |
| 20260903203604 | 58 | 132 | 0.0 | 0.0 | 0.00 | 0.26 | 0.09 | 92 | 1009.7 |
| 20260903203104 | 58 | 132 | 0.0 | 0.0 | 0.00 | 0.26 | 0.09 | 93 | 1009.7 |
| 20260903202605 | 58 | 132 | 0.0 | 0.0 | 0.00 | 0.26 | 0.09 | 92 | 1009.7 |
| 20260903202105 | 58 | 132 | 0.0 | 0.0 | 0.00 | 0.26 | 0.09 | 93 | 1009.7 |
| 20260903201604 | 58 | 132 | 0.0 | 0.0 | 0.00 | 0.26 | 0.09 | 92 | 1009.8 |
| 20260903201104 | 58 | 132 | 0.0 | 0.0 | 0.00 | 0.26 | 0.09 | 92 | 1009.9 |
| 20260903200604 | 58 | 132 | 0.0 | 0.0 | 0.00 | 0.26 | 0.09 | 92 | 1009.9 |
| 20260903200105 | 58 | 132 | 0.0 | 0.0 | 0.00 | 0.26 | 0.09 | 92 | 1009.8 |
| 20260903195604 | 57 | 132 | 0.0 | 0.0 | 0.00 | 0.26 | 0.09 | 93 | 1009.7 |
| 20260903195105 | 57 | 132 | 0.0 | 0.0 | 0.00 | 0.26 | 0.09 | 94 | 1009.8 |
| 20260903194605 | 57 | 132 | 0.0 | 0.0 | 0.00 | 0.26 | 0.09 | 93 | 1009.8 |
| 20260903194105 | 57 | 132 | 0.0 | 0.0 | 0.00 | 0.26 | 0.09 | 93 | 1009.7 |
| 20260903191104 | 57 | 132 | 0.0 | 0.0 | 0.00 | 0.26 | 0.09 | 94 | 1009.5 |
| 20260903190604 | 57 | 132 | 0.0 | 0.0 | 0.00 | 0.26 | 0.09 | 94 | 1009.6 |
| 20260903190105 | 57 | 132 | 0.0 | 0.0 | 0.00 | 0.26 | 0.09 | 93 | 1009.6 |
| 20260903185605 | 57 | 132 | 0.0 | 0.0 | 0.00 | 0.26 | 0.09 | 95 | 1009.5 |
| 20260903185105 | 56 | 132 | 0.0 | 0.0 | 0.00 | 0.26 | 0.09 | 96 | 1009.5 |
| 20260903184605 | 56 | 132 | 0.0 | 0.0 | 0.00 | 0.26 | 0.09 | 95 | 1009.6 |